This demonstration page uses our WeatherBlox Daily Observations layout. Learn more.

Hourly Observations for August 8, 2019

Temp ( °F °C ) Dew Point ( °F °C ) Humidity (%) Winds ( mph kmh ) Pressure ( in mb ) Visibility ( mi km ) Precip ( " mm )
12:15 am 00:15 Partly Cloudy 70 21 70 21 100 100 W 6 9 29.83 1010 10 16.09344 0 0
12:35 am 00:35 Clear 70 21 70 21 100 100 W 6 9 29.83 1010 10 16.09344 0 0
12:55 am 00:55 Clear 70 21 70 21 100 100 WSW 6 9 29.83 1010 10 16.09344 0 0
1:15 am 01:15 Clear 70 21 68 20 94 94 WSW 5 7 29.83 1010 10 16.09344 0 0
1:35 am 01:35 Clear 70 21 68 20 94 94 W 7 11 29.83 1010 10 16.09344 0 0
1:55 am 01:55 Clear 70 21 68 20 94 94 WSW 6 9 29.83 1010 10 16.09344 0 0
2:15 am 02:15 Clear 70 21 68 20 94 94 WSW 6 9 29.8 1009 10 16.09344 0 0
2:35 am 02:35 Clear 70 21 68 20 94 94 WSW 5 7 29.8 1009 10 16.09344 0 0
2:55 am 02:55 Clear 68 20 68 20 100 100 Calm 29.8 1009 10 16.09344 0 0
3:15 am 03:15 Clear 68 20 68 20 100 100 WSW 5 7 29.8 1009 10 16.09344 0 0
3:35 am 03:35 Clear 68 20 68 20 100 100 WSW 3 6 29.8 1009 10 16.09344 0 0
3:55 am 03:55 Clear 68 20 68 20 100 100 W 5 7 29.8 1009 10 16.09344 0 0
4:15 am 04:15 Clear 68 20 68 20 100 100 W 3 6 29.8 1009 10 16.09344 0 0
4:35 am 04:35 Partly Cloudy 66 19 66 19 100 100 W 5 7 29.8 1009 10 16.09344 0 0
4:55 am 04:55 Partly Cloudy 68 20 66 19 94 94 W 5 7 29.8 1009 10 16.09344 0 0
5:15 am 05:15 Partly Cloudy with Nearby Thunderstorms 66 19 66 19 100 100 Calm 29.8 1009 10 16.09344 0 0
5:35 am 05:35 Partly Cloudy 68 20 68 20 100 100 W 8 13 29.8 1009 10 16.09344 0 0
5:55 am 05:55 Clear 68 20 66 19 94 94 Calm 29.8 1009 10 16.09344 0 0
6:15 am 06:15 Partly Cloudy 66 19 66 19 100 100 WNW 3 6 29.8 1009 10 16.09344 0 0
6:35 am 06:35 Partly Cloudy 66 19 66 19 100 100 W 7 11 29.8 1009 7 11.265408 0 0
6:55 am 06:55 Sunny 66 19 66 19 100 100 W 3 6 29.8 1009 10 16.09344 0 0
7:15 am 07:15 Sunny 68 20 66 19 94 94 Calm 29.8 1009 10 16.09344 0 0
7:35 am 07:35 Sunny 70 21 68 20 94 94 W 5 7 29.8 1009 10 16.09344 0 0
7:55 am 07:55 Sunny 72 22 68 20 88 88 Calm 29.83 1010 10 16.09344 0 0
8:15 am 08:15 Sunny 73 23 68 20 83 83 WNW 5 7 29.83 1010 10 16.09344 0 0
8:35 am 08:35 Sunny 77 25 68 20 74 74 WNW 5 7 29.83 1010 10 16.09344 0 0
8:55 am 08:55 Sunny 77 25 68 20 74 74 NW 3 6 29.83 1010 10 16.09344 0 0
9:15 am 09:15 Sunny 79 26 68 20 70 70 Calm 29.83 1010 10 16.09344 0 0
9:35 am 09:35 Sunny 79 26 68 20 70 70 W 6 9 29.83 1010 10 16.09344 0 0
9:55 am 09:55 Sunny 81 27 68 20 66 66 W 7 11 29.83 1010 10 16.09344 0 0
10:15 am 10:15 Sunny 81 27 70 21 70 70 W 8 13 29.83 1010 10 16.09344 0 0
10:35 am 10:35 Partly Cloudy 82 28 70 21 66 66 W 9 15 29.83 1010 10 16.09344 0 0
10:55 am 10:55 Sunny 82 28 68 20 62 62 NW 9 15 29.83 1010 10 16.09344 0 0
11:15 am 11:15 Partly Cloudy 82 28 68 20 62 62 WNW 14 22 29.83 1010 10 16.09344 0 0
11:35 am 11:35 Partly Cloudy 82 28 68 20 62 62 WNW 10 17 29.83 1010 10 16.09344 0 0
11:55 am 11:55 Partly Cloudy 86 30 68 20 55 55 W 6 9 29.8 1009 10 16.09344 0 0
12:15 pm 12:15 Partly Cloudy 86 30 68 20 55 55 WNW 10 17 29.77 1008 10 16.09344 0 0
12:35 pm 12:35 Partly Cloudy 86 30 66 19 52 52 NW 10 17 29.8 1009 10 16.09344 0 0
12:55 pm 12:55 Partly Cloudy 88 31 64 18 46 46 NW 12 19 29.77 1008 10 16.09344 0 0
1:15 pm 13:15 Partly Cloudy 88 31 64 18 46 46 W 10 17 29.77 1008 10 16.09344 0 0
1:35 pm 13:35 Sunny 88 31 63 17 43 43 NW 8 13 29.77 1008 10 16.09344 0 0
1:55 pm 13:55 Sunny 90 32 64 18 43 43 WNW 12 19 29.77 1008 10 16.09344 0 0
2:15 pm 14:15 Sunny 90 32 63 17 41 41 NW 10 17 29.77 1008 10 16.09344 0 0
2:35 pm 14:35 Sunny 90 32 63 17 41 41 WNW 10 17 29.77 1008 10 16.09344 0 0
2:55 pm 14:55 Sunny 90 32 63 17 41 41 W 8 13 29.77 1008 10 16.09344 0 0
3:15 pm 15:15 Sunny 90 32 63 17 41 41 W 8 13 29.77 1008 10 16.09344 0 0
3:35 pm 15:35 Sunny 90 32 63 17 41 41 WNW 6 9 29.74 1007 10 16.09344 0 0
3:55 pm 15:55 Partly Cloudy 91 33 63 17 38 38 WNW 10 17 29.74 1007 10 16.09344 0 0
4:15 pm 16:15 Partly Cloudy 90 32 63 17 41 41 W 7 11 29.74 1007 10 16.09344 0 0
4:35 pm 16:35 Sunny 91 33 63 17 38 38 W 6 9 29.74 1007 10 16.09344 0 0
4:55 pm 16:55 Sunny 91 33 63 17 38 38 W 12 19 29.74 1007 10 16.09344 0 0
5:15 pm 17:15 Sunny 90 32 61 16 38 38 W 8 13 29.74 1007 10 16.09344 0 0
5:35 pm 17:35 Partly Cloudy 90 32 63 17 41 41 W 10 17 29.74 1007 10 16.09344 0 0
5:55 pm 17:55 Cloudy 88 31 63 17 43 43 WNW 12 19 29.74 1007 10 16.09344 0 0
6:15 pm 18:15 Partly Cloudy 88 31 63 17 43 43 W 9 15 29.74 1007 10 16.09344 0 0
6:35 pm 18:35 Partly Cloudy 86 30 64 18 49 49 W 9 15 29.74 1007 10 16.09344 0 0
6:55 pm 18:55 Mostly Cloudy 88 31 64 18 46 46 WNW 10 17 29.74 1007 10 16.09344 0 0
7:15 pm 19:15 Partly Cloudy 86 30 64 18 49 49 WNW 9 15 29.77 1008 10 16.09344 0 0
7:35 pm 19:35 Sunny 84 29 64 18 51 51 W 6 9 29.77 1008 10 16.09344 0 0
7:55 pm 19:55 Sunny 84 29 64 18 51 51 Calm 29.77 1008 10 16.09344 0 0
8:15 pm 20:15 Clear 82 28 64 18 55 55 SW 3 6 29.8 1009 10 16.09344 0 0
8:35 pm 20:35 Clear 81 27 64 18 58 58 W 5 7 29.8 1009 10 16.09344 0 0
8:55 pm 20:55 Clear 81 27 64 18 58 58 W 3 6 29.8 1009 10 16.09344 0 0
9:15 pm 21:15 Clear 79 26 64 18 61 61 W 6 9 29.8 1009 10 16.09344 0 0
9:35 pm 21:35 Clear 77 25 64 18 65 65 W 6 9 29.8 1009 10 16.09344 0 0
9:55 pm 21:55 Clear 79 26 64 18 61 61 W 3 6 29.83 1010 10 16.09344 0 0
10:15 pm 22:15 Clear 79 26 64 18 61 61 WSW 5 7 29.83 1010 10 16.09344 0 0
10:35 pm 22:35 Clear 79 26 64 18 61 61 SW 3 6 29.83 1010 10 16.09344 0 0
10:55 pm 22:55 Clear 77 25 64 18 65 65 W 6 9 29.83 1010 10 16.09344 0 0
11:15 pm 23:15 Clear 77 25 64 18 65 65 W 7 11 29.8 1009 10 16.09344 0 0
11:35 pm 23:35 Clear 77 25 64 18 65 65 WSW 3 6 29.8 1009 10 16.09344 0 0
11:55 pm 23:55 Clear 77 25 64 18 65 65 W 3 6 29.8 1009 10 16.09344 0 0

Powered by AerisWeather